SKY MUSTER

导读 | 星芒AI

SKY Muster 是由澳大利亚电信公司 Telstra 运营的宽带卫星系统,旨在为澳大利亚偏远地区提供互联网接入。该系统由两颗高轨道卫星(Sky Muster 和 Sky Muster II)组成,采用先进技术以提高网速和减少延迟。SKY Muster 主要服务于固定用户和移动平台,如船只和飞机。该项目极大改善了偏远地区的网络连接,促进了教育、医疗和商业的发展。

基本信息
目录编号:
40940
目录名称:
SKY MUSTER
国际标识:
2015-054A
轨道中心:
EARTH
卫星名称:
SKY MUSTER
卫星全名:
--
卫星状态:
在轨 (已飞行3686 天)
发射日期:
2015-09-30 UTC
国别 :
澳大利亚 (AU)
星等 :
--
轨道信息
数据来源 国际轨道数据 AOE轨道数据
星历时间 2025-11-02T16:26:38+0800
15小时前
查看轨道信息
2025-11-03T03:00:00+0800
4小时前
查看轨道信息
半长轴 42164.924km 42164.616km
偏心率 0.0001872 0.0001756
轨道倾角 0.015° 0.012°
近地点辐角 308.460° 315.068°
升交点赤经 267.543° 268.129°
平近点角 92.816° 244.398°
近地点 35778.895km 35779.076km
远地点 35794.683km 35793.886km
周期 1436.107分钟 1436.091分钟
每日圈数 1.002711 1.002722
详细信息
使用方式:
暂无
2D轨道图
3D轨道图
轨道高度分析图
轨道倾角分析图
轨道综合分析图
查看轨道综合分析图